Find Starlink 36182

NORAD ID: 67192 Int'l Des: 2025-304 Owner: SPXS Country: US Constellation: starlink operational
LEOCIRCULAR

Current View

Loading 3D Globe...

About Starlink 36182

Description loading...

Upcoming Passes

Passes for default location (London). Set your location on the main map for personalized predictions.

Altitude History

Loading altitude history...

Two-Line Element Set

1 67192U 25304A 26145.92481492 .00000868 00000-0 80489-4 0 9991
2 67192 70.0015 339.7310 0002303 263.3383 96.7514 14.98331214 25423
Epoch: May 25, 2026 • Age: 20 hours

Current Status

Altitude 584.0 km
Velocity 7.57 km/s
Sub-Earth Point 63.86°N, 125.28°W
Launch Date Dec 17, 2025
Age 0.4 years
Type internet

Technical Details

Classification Payload
Mass 575.00 kg
Dry Mass 530.00 kg
Total Mass 575.00 kg
Length 0.30 m
Diameter 4.10 m
Span 29.00 m
Shape Box + pan
Manufacturer SPXS
Bus Type Starlink V2MO
Phase Status In Orbit
Owner/State SPXS/US

Most Searched